| time (UTC) | temp C | wind direction | speed KPH | gust KPH | rain 1hr cm | rain 24hr cm | rain mn cm | humidity % | barometer mb |
| 20260505000611 | 25 | 328 | 3.2 | 3.2 | 0.00 | 0.00 | 0.00 | 78 | 1010.0 |
| 20260505000112 | 25 | 319 | 3.2 | 3.2 | 0.00 | 0.00 | 0.00 | 79 | 1010.0 |
| 20260504235613 | 25 | 324 | 3.2 | 3.2 | 0.00 | 0.00 | 0.00 | 78 | 1010.0 |
| 20260504235111 | 26 | 354 | 4.8 | 4.8 | 0.00 | 0.00 | 0.00 | 77 | 1010.0 |
| 20260504234611 | 26 | 351 | 4.8 | 4.8 | 0.00 | 0.00 | 0.00 | 77 | 1010.0 |
| 20260504234111 | 26 | 339 | 1.6 | 3.2 | 0.00 | 0.00 | 0.00 | 77 | 1010.0 |
| 20260504233611 | 25 | 339 | 1.6 | 1.6 | 0.00 | 0.00 | 0.00 | 78 | 1010.0 |
| 20260504233112 | 25 | 324 | 0.0 | 0.0 | 0.00 | 0.00 | 0.00 | 78 | 1010.0 |
| 20260504232611 | 26 | 210 | 0.0 | 0.0 | 0.00 | 0.00 | 0.00 | 79 | 1010.0 |
| 20260504232113 | 26 | 215 | 0.0 | 0.0 | 0.00 | 0.00 | 0.00 | 78 | 1010.0 |
| 20260504231612 | 26 | 218 | 0.0 | 0.0 | 0.00 | 0.00 | 0.00 | 78 | 1010.0 |
| 20260504231111 | 26 | 234 | 1.6 | 1.6 | 0.00 | 0.00 | 0.00 | 78 | 1010.0 |
| 20260504230612 | 26 | 213 | 1.6 | 1.6 | 0.00 | 0.00 | 0.00 | 78 | 1010.0 |
| 20260504230112 | 26 | 213 | 0.0 | 1.6 | 0.00 | 0.00 | 0.00 | 77 | 1010.0 |
| 20260504225611 | 26 | 213 | 0.0 | 0.0 | 0.00 | 0.00 | 0.00 | 77 | 1010.0 |
| 20260504225112 | 26 | 217 | 0.0 | 0.0 | 0.00 | 0.00 | 0.00 | 78 | 1010.0 |
| 20260504224611 | 26 | 212 | 0.0 | 0.0 | 0.00 | 0.00 | 0.00 | 78 | 1010.0 |
| 20260504224111 | 26 | 216 | 0.0 | 0.0 | 0.00 | 0.00 | 0.00 | 78 | 1009.0 |
| 20260504223612 | 26 | 204 | 0.0 | 0.0 | 0.00 | 0.00 | 0.00 | 77 | 1009.0 |
| 20260504223112 | 26 | 201 | 0.0 | 0.0 | 0.00 | 0.00 | 0.00 | 77 | 1009.0 |
| 20260504222614 | 26 | 22 | 1.6 | 3.2 | 0.00 | 0.00 | 0.00 | 76 | 1009.0 |
| 20260504222113 | 26 | 158 | 0.0 | 0.0 | 0.00 | 0.00 | 0.00 | 75 | 1009.0 |
| 20260504221613 | 26 | 244 | 0.0 | 0.0 | 0.00 | 0.00 | 0.00 | 74 | 1009.0 |
| 20260504221112 | 26 | 224 | 0.0 | 0.0 | 0.00 | 0.00 | 0.00 | 74 | 1009.0 |
| 20260504220612 | 26 | 216 | 0.0 | 0.0 | 0.00 | 0.00 | 0.00 | 74 | 1009.0 |
| 20260504220111 | 26 | 232 | 1.6 | 1.6 | 0.00 | 0.00 | 0.00 | 75 | 1009.0 |
| 20260504215614 | 26 | 305 | 1.6 | 1.6 | 0.00 | 0.00 | 0.00 | 74 | 1009.0 |
| 20260504215112 | 26 | 192 | 0.0 | 0.0 | 0.00 | 0.00 | 0.00 | 75 | 1009.0 |
| 20260504214611 | 26 | 198 | 0.0 | 0.0 | 0.00 | 0.00 | 0.00 | 75 | 1009.0 |
| 20260504214111 | 26 | 185 | 0.0 | 0.0 | 0.00 | 0.00 | 0.00 | 75 | 1009.0 |
| 20260504213611 | 26 | 181 | 0.0 | 0.0 | 0.00 | 0.00 | 0.00 | 75 | 1009.0 |
| 20260504213113 | 26 | 195 | 0.0 | 0.0 | 0.00 | 0.00 | 0.00 | 74 | 1009.0 |
| 20260504212613 | 26 | 195 | 0.0 | 0.0 | 0.00 | 0.00 | 0.00 | 74 | 1009.0 |
| 20260504212115 | 26 | 212 | 0.0 | 0.0 | 0.00 | 0.00 | 0.00 | 75 | 1009.0 |
| 20260504211612 | 26 | 215 | 0.0 | 0.0 | 0.00 | 0.00 | 0.00 | 75 | 1009.0 |
| 20260504211113 | 26 | 195 | 0.0 | 0.0 | 0.00 | 0.00 | 0.00 | 76 | 1009.0 |
| 20260504210613 | 26 | 187 | 0.0 | 0.0 | 0.00 | 0.00 | 0.00 | 76 | 1009.0 |
| 20260504210113 | 26 | 226 | 0.0 | 0.0 | 0.00 | 0.00 | 0.00 | 74 | 1009.0 |
| 20260504205613 | 26 | 237 | 1.6 | 1.6 | 0.00 | 0.00 | 0.00 | 75 | 1009.0 |
| 20260504205111 | 26 | 217 | 0.0 | 0.0 | 0.00 | 0.00 | 0.00 | 76 | 1009.0 |
| 20260504204613 | 26 | 218 | 0.0 | 0.0 | 0.00 | 0.00 | 0.00 | 76 | 1009.0 |
| 20260504204113 | 26 | 231 | 0.0 | 0.0 | 0.00 | 0.00 | 0.00 | 76 | 1009.0 |
| 20260504203613 | 26 | 209 | 0.0 | 0.0 | 0.00 | 0.00 | 0.00 | 76 | 1009.0 |
| 20260504203114 | 26 | 208 | 0.0 | 0.0 | 0.00 | 0.00 | 0.00 | 76 | 1009.0 |
| 20260504202612 | 26 | 247 | 3.2 | 3.2 | 0.00 | 0.00 | 0.00 | 75 | 1009.0 |
| 20260504202116 | 26 | 211 | 1.6 | 3.2 | 0.00 | 0.00 | 0.00 | 75 | 1009.0 |
| 20260504201611 | 26 | 229 | 0.0 | 0.0 | 0.00 | 0.00 | 0.00 | 74 | 1010.0 |
| 20260504201112 | 26 | 203 | 1.6 | 1.6 | 0.00 | 0.00 | 0.00 | 74 | 1009.0 |
| 20260504200614 | 26 | 225 | 0.0 | 0.0 | 0.00 | 0.00 | 0.00 | 72 | 1009.0 |
| 20260504200114 | 26 | 227 | 0.0 | 1.6 | 0.00 | 0.00 | 0.00 | 72 | 1009.0 |
| 20260504195612 | 26 | 246 | 1.6 | 1.6 | 0.00 | 0.00 | 0.00 | 72 | 1009.0 |
| 20260504195115 | 26 | 247 | 1.6 | 1.6 | 0.00 | 0.00 | 0.00 | 71 | 1009.0 |
| 20260504194613 | 26 | 336 | 3.2 | 3.2 | 0.00 | 0.00 | 0.00 | 71 | 1009.0 |
| 20260504194113 | 26 | 261 | 0.0 | 0.0 | 0.00 | 0.00 | 0.00 | 71 | 1009.0 |
| 20260504193614 | 26 | 217 | 0.0 | 0.0 | 0.00 | 0.00 | 0.00 | 72 | 1009.0 |
| 20260504193113 | 26 | 209 | 0.0 | 0.0 | 0.00 | 0.00 | 0.00 | 72 | 1009.0 |
| 20260504192612 | 26 | 208 | 0.0 | 0.0 | 0.00 | 0.00 | 0.00 | 72 | 1009.0 |
| 20260504192111 | 26 | 192 | 0.0 | 0.0 | 0.00 | 0.00 | 0.00 | 71 | 1010.0 |
| 20260504191614 | 26 | 175 | 1.6 | 1.6 | 0.00 | 0.00 | 0.00 | 71 | 1010.0 |
| 20260504191112 | 27 | 161 | 1.6 | 1.6 | 0.00 | 0.00 | 0.00 | 71 | 1010.0 |
| 20260504190612 | 27 | 160 | 0.0 | 0.0 | 0.00 | 0.00 | 0.00 | 71 | 1010.0 |
| 20260504190113 | 27 | 185 | 0.0 | 0.0 | 0.00 | 0.00 | 0.00 | 70 | 1010.0 |
| 20260504185613 | 27 | 201 | 0.0 | 0.0 | 0.00 | 0.00 | 0.00 | 69 | 1010.0 |
| 20260504185114 | 27 | 203 | 0.0 | 0.0 | 0.00 | 0.00 | 0.00 | 69 | 1010.0 |
| 20260504184612 | 27 | 196 | 1.6 | 1.6 | 0.00 | 0.00 | 0.00 | 69 | 1010.0 |
| 20260504184113 | 27 | 216 | 1.6 | 1.6 | 0.00 | 0.00 | 0.00 | 69 | 1010.0 |
| 20260504183612 | 27 | 210 | 0.0 | 0.0 | 0.00 | 0.00 | 0.00 | 70 | 1010.0 |
| 20260504183113 | 27 | 205 | 1.6 | 1.6 | 0.00 | 0.00 | 0.00 | 69 | 1010.0 |
| 20260504182613 | 27 | 180 | 3.2 | 3.2 | 0.00 | 0.00 | 0.00 | 69 | 1010.0 |
| 20260504182115 | 27 | 180 | 3.2 | 3.2 | 0.00 | 0.00 | 0.00 | 69 | 1010.0 |
| 20260504181614 | 27 | 192 | 1.6 | 3.2 | 0.00 | 0.00 | 0.00 | 70 | 1010.0 |
| 20260504181114 | 27 | 189 | 1.6 | 1.6 | 0.00 | 0.00 | 0.00 | 70 | 1010.0 |
| 20260504180613 | 27 | 166 | 0.0 | 0.0 | 0.00 | 0.00 | 0.00 | 70 | 1010.0 |
| 20260504180112 | 27 | 192 | 0.0 | 0.0 | 0.00 | 0.00 | 0.00 | 69 | 1010.0 |
| 20260504175613 | 27 | 192 | 0.0 | 0.0 | 0.00 | 0.00 | 0.00 | 69 | 1010.0 |
| 20260504175115 | 27 | 159 | 0.0 | 1.6 | 0.00 | 0.00 | 0.00 | 69 | 1010.0 |
| 20260504174614 | 27 | 190 | 0.0 | 1.6 | 0.00 | 0.00 | 0.00 | 69 | 1010.0 |
| 20260504174113 | 27 | 179 | 1.6 | 3.2 | 0.00 | 0.00 | 0.00 | 69 | 1010.0 |
| 20260504173614 | 27 | 174 | 0.0 | 0.0 | 0.00 | 0.00 | 0.00 | 69 | 1010.0 |
| 20260504173114 | 27 | 179 | 3.2 | 3.2 | 0.00 | 0.00 | 0.00 | 69 | 1010.0 |
| 20260504172613 | 27 | 182 | 3.2 | 3.2 | 0.00 | 0.00 | 0.00 | 69 | 1010.0 |
| 20260504172114 | 27 | 158 | 4.8 | 4.8 | 0.00 | 0.00 | 0.00 | 69 | 1011.0 |
| 20260504171614 | 27 | 188 | 0.0 | 0.0 | 0.00 | 0.00 | 0.00 | 69 | 1010.0 |
| 20260504171113 | 27 | 187 | 0.0 | 0.0 | 0.00 | 0.00 | 0.00 | 69 | 1010.0 |
| 20260504170613 | 27 | 207 | 3.2 | 3.2 | 0.00 | 0.00 | 0.00 | 68 | 1010.0 |
| 20260504170113 | 27 | 186 | 1.6 | 1.6 | 0.00 | 0.00 | 0.00 | 68 | 1010.0 |
| 20260504160113 | 27 | 176 | 3.2 | 3.2 | 0.00 | 0.00 | 0.00 | 69 | 1010.0 |
| 20260504151113 | 28 | 133 | 4.8 | 6.4 | 0.00 | 0.00 | 0.00 | 67 | 1010.0 |
| 20260504150614 | 27 | 111 | 1.6 | 3.2 | 0.00 | 0.00 | 0.00 | 68 | 1010.0 |
| 20260504150113 | 28 | 174 | 1.6 | 3.2 | 0.00 | 0.00 | 0.00 | 68 | 1010.0 |
| 20260504141116 | 29 | 195 | 1.6 | 1.6 | 0.00 | 0.00 | 0.00 | 65 | 1008.0 |
| 20260504140616 | 28 | 179 | 3.2 | 3.2 | 0.00 | 0.00 | 0.00 | 65 | 1008.0 |
| 20260504140116 | 29 | 131 | 3.2 | 3.2 | 0.00 | 0.00 | 0.00 | 65 | 1007.0 |
| 20260504130615 | 30 | 186 | 4.8 | 4.8 | 0.00 | 0.00 | 0.00 | 62 | 1007.0 |
| 20260504130114 | 30 | 280 | 3.2 | 6.4 | 0.00 | 0.00 | 0.00 | 62 | 1007.0 |
| 20260504120113 | 30 | 29 | 4.8 | 6.4 | 0.00 | 0.00 | 0.00 | 62 | 1007.0 |
| 20260504110615 | 30 | 345 | 4.8 | 4.8 | 0.00 | 0.00 | 0.00 | 60 | 1006.0 |
| 20260504110113 | 30 | 52 | 8.0 | 9.7 | 0.00 | 0.00 | 0.00 | 60 | 1006.0 |
| 20260504100615 | 30 | 289 | 9.7 | 11.3 | 0.00 | 0.00 | 0.00 | 56 | 1006.0 |
| 20260504100113 | 29 | 281 | 8.0 | 11.3 | 0.00 | 0.00 | 0.00 | 57 | 1006.0 |
| 20260504090116 | 29 | 281 | 19.3 | 24.1 | 0.00 | 0.00 | 0.00 | 57 | 1007.0 |
| 20260504081613 | 36 | 17 | 8.0 | 11.3 | 0.00 | 0.00 | 0.00 | 52 | 1006.0 |
| 20260504081113 | 36 | 177 | 6.4 | 11.3 | 0.00 | 0.00 | 0.00 | 52 | 1007.0 |
| 20260504080612 | 36 | 160 | 11.3 | 14.5 | 0.00 | 0.00 | 0.00 | 53 | 1007.0 |
| 20260504080112 | 36 | 189 | 3.2 | 4.8 | 0.00 | 0.00 | 0.00 | 54 | 1007.0 |
| 20260504070113 | 35 | 171 | 8.0 | 11.3 | 0.00 | 0.00 | 0.00 | 56 | 1009.0 |
| 20260504060112 | 34 | 180 | 0.0 | 0.0 | 0.00 | 0.00 | 0.00 | 57 | 1010.0 |
| 20260504050612 | 33 | 225 | 8.0 | 11.3 | 0.00 | 0.00 | 0.00 | 61 | 1010.0 |
| 20260504050113 | 32 | 208 | 1.6 | 1.6 | 0.00 | 0.00 | 0.00 | 61 | 1010.0 |
| 20260504045613 | 32 | 232 | 3.2 | 3.2 | 0.00 | 0.00 | 0.00 | 63 | 1010.0 |
| 20260504045111 | 32 | 116 | 3.2 | 3.2 | 0.00 | 0.00 | 0.00 | 63 | 1010.0 |
| 20260504044611 | 32 | 216 | 6.4 | 6.4 | 0.00 | 0.00 | 0.00 | 61 | 1010.0 |
| 20260504044111 | 32 | 232 | 9.7 | 12.9 | 0.00 | 0.00 | 0.00 | 62 | 1010.0 |
| 20260504043611 | 32 | 241 | 6.4 | 9.7 | 0.00 | 0.00 | 0.00 | 62 | 1010.0 |
| 20260504043112 | 31 | 150 | 6.4 | 6.4 | 0.00 | 0.00 | 0.00 | 64 | 1010.0 |
| 20260504042613 | 31 | 159 | 6.4 | 9.7 | 0.00 | 0.00 | 0.00 | 64 | 1010.0 |
| 20260504042114 | 31 | 176 | 4.8 | 4.8 | 0.00 | 0.00 | 0.00 | 64 | 1010.0 |
| 20260504041615 | 31 | 148 | 9.7 | 12.9 | 0.00 | 0.00 | 0.00 | 65 | 1011.0 |
| 20260504041111 | 31 | 140 | 8.0 | 11.3 | 0.00 | 0.00 | 0.00 | 64 | 1010.0 |
| 20260504040612 | 31 | 204 | 8.0 | 9.7 | 0.00 | 0.00 | 0.00 | 63 | 1010.0 |
| 20260504040111 | 31 | 136 | 4.8 | 4.8 | 0.00 | 0.00 | 0.00 | 64 | 1010.0 |
| 20260504035612 | 31 | 216 | 4.8 | 6.4 | 0.00 | 0.00 | 0.00 | 64 | 1010.0 |
| 20260504035111 | 31 | 181 | 1.6 | 1.6 | 0.00 | 0.00 | 0.00 | 65 | 1011.0 |
| 20260504034611 | 30 | 137 | 4.8 | 4.8 | 0.00 | 0.00 | 0.00 | 66 | 1011.0 |
| 20260504034111 | 31 | 161 | 9.7 | 11.3 | 0.00 | 0.00 | 0.00 | 65 | 1011.0 |
| 20260504033611 | 31 | 223 | 1.6 | 1.6 | 0.00 | 0.00 | 0.00 | 64 | 1011.0 |
| 20260504033113 | 30 | 173 | 6.4 | 9.7 | 0.00 | 0.00 | 0.00 | 65 | 1011.0 |
| 20260504032611 | 30 | 168 | 3.2 | 3.2 | 0.00 | 0.00 | 0.00 | 67 | 1011.0 |
| 20260504032111 | 30 | 178 | 6.4 | 11.3 | 0.00 | 0.00 | 0.00 | 67 | 1011.0 |
| 20260504031611 | 30 | 188 | 0.0 | 1.6 | 0.00 | 0.00 | 0.00 | 66 | 1011.0 |
| 20260504031114 | 30 | 103 | 3.2 | 3.2 | 0.00 | 0.00 | 0.00 | 65 | 1011.0 |
| 20260504030611 | 29 | 154 | 3.2 | 4.8 | 0.00 | 0.00 | 0.00 | 65 | 1010.0 |
| 20260504030111 | 30 | 187 | 4.8 | 6.4 | 0.00 | 0.00 | 0.00 | 65 | 1010.0 |
| 20260504025611 | 29 | 158 | 4.8 | 4.8 | 0.00 | 0.00 | 0.00 | 65 | 1010.0 |
| 20260504025111 | 28 | 171 | 3.2 | 3.2 | 0.00 | 0.00 | 0.00 | 67 | 1010.0 |
| 20260504024611 | 29 | 171 | 6.4 | 6.4 | 0.00 | 0.00 | 0.00 | 67 | 1010.0 |
| 20260504024111 | 28 | 128 | 3.2 | 4.8 | 0.00 | 0.00 | 0.00 | 68 | 1010.0 |
| 20260504023611 | 28 | 153 | 1.6 | 3.2 | 0.00 | 0.00 | 0.00 | 68 | 1010.0 |
| 20260504023112 | 28 | 176 | 4.8 | 4.8 | 0.00 | 0.00 | 0.00 | 69 | 1010.0 |
| 20260504022611 | 27 | 181 | 0.0 | 1.6 | 0.00 | 0.00 | 0.00 | 70 | 1010.0 |
| 20260504022111 | 27 | 134 | 1.6 | 1.6 | 0.00 | 0.00 | 0.00 | 71 | 1010.0 |
| 20260504021611 | 27 | 145 | 1.6 | 1.6 | 0.00 | 0.00 | 0.00 | 72 | 1010.0 |
| 20260504021112 | 27 | 105 | 9.7 | 11.3 | 0.00 | 0.00 | 0.00 | 72 | 1010.0 |
| 20260504020612 | 27 | 127 | 3.2 | 3.2 | 0.00 | 0.00 | 0.00 | 72 | 1010.0 |
| 20260504020112 | 27 | 116 | 4.8 | 4.8 | 0.00 | 0.00 | 0.00 | 72 | 1010.0 |
| 20260504015612 | 27 | 176 | 1.6 | 1.6 | 0.00 | 0.00 | 0.00 | 73 | 1010.0 |
| 20260504015112 | 26 | 144 | 8.0 | 9.7 | 0.00 | 0.00 | 0.00 | 74 | 1010.0 |
| 20260504014611 | 26 | 117 | 4.8 | 6.4 | 0.00 | 0.00 | 0.00 | 75 | 1010.0 |
| 20260504014112 | 26 | 116 | 3.2 | 4.8 | 0.00 | 0.00 | 0.00 | 75 | 1009.0 |
| 20260504013612 | 26 | 131 | 3.2 | 3.2 | 0.00 | 0.00 | 0.00 | 76 | 1009.0 |
| 20260504013111 | 26 | 126 | 3.2 | 4.8 | 0.00 | 0.00 | 0.00 | 76 | 1009.0 |
| 20260504012611 | 26 | 74 | 1.6 | 3.2 | 0.00 | 0.00 | 0.00 | 76 | 1009.0 |
| 20260504012111 | 26 | 117 | 3.2 | 4.8 | 0.00 | 0.00 | 0.00 | 77 | 1009.0 |
| 20260504011611 | 25 | 74 | 1.6 | 1.6 | 0.00 | 0.00 | 0.00 | 77 | 1009.0 |
| 20260504011112 | 25 | 75 | 3.2 | 4.8 | 0.00 | 0.00 | 0.00 | 77 | 1009.0 |
| 20260504010612 | 25 | 87 | 1.6 | 3.2 | 0.00 | 0.00 | 0.00 | 78 | 1009.0 |
| 20260504010112 | 25 | 149 | 0.0 | 1.6 | 0.00 | 0.00 | 0.00 | 78 | 1009.0 |
| 20260504005611 | 25 | 146 | 0.0 | 0.0 | 0.00 | 0.00 | 0.00 | 79 | 1009.0 |
| 20260504005112 | 25 | 73 | 1.6 | 1.6 | 0.00 | 0.00 | 0.00 | 79 | 1009.0 |
| 20260504004612 | 25 | 57 | 9.7 | 9.7 | 0.00 | 0.00 | 0.00 | 79 | 1009.0 |
| 20260504004111 | 25 | 41 | 1.6 | 3.2 | 0.00 | 0.00 | 0.00 | 80 | 1009.0 |
| 20260504003612 | 25 | 74 | 1.6 | 1.6 | 0.00 | 0.00 | 0.00 | 80 | 1009.0 |
| 20260504003111 | 25 | 81 | 1.6 | 1.6 | 0.00 | 0.00 | 0.00 | 81 | 1009.0 |
| 20260504002611 | 25 | 16 | 4.8 | 4.8 | 0.00 | 0.00 | 0.00 | 80 | 1009.0 |
| 20260504002113 | 25 | 88 | 0.0 | 1.6 | 0.00 | 0.00 | 0.00 | 80 | 1008.0 |
| 20260504001611 | 25 | 13 | 1.6 | 1.6 | 0.00 | 0.00 | 0.00 | 79 | 1008.0 |
| 20260504001112 | 25 | 248 | 0.0 | 0.0 | 0.00 | 0.00 | 0.00 | 79 | 1008.0 |